When you browse on this site, cookies collect data to enhance your experience and personalize the content and advertising you see.
Visit our Privacy Policy to learn more. By continuing to use the site, you agree to this use of cookies and data.
  • In Spain
  • List of Countries
  • For 7 days
  • Water Temperature
  • Weather Map
  • Weather Widgets
  • user-avatar
    Login

    Hourly Weather Dorchester

    Today, 17 September, Tuesday

    Time Temperature Precipitation Wind Pressure Humidity
    00:00 +13°C° 0 mm 2 mps 763 mmHg 84%
    01:00 +12°C° 0 mm 2 mps 763 mmHg 86%
    02:00 +10°C° 0 mm 2 mps 763 mmHg 88%
    03:00 +9°C° 0 mm 2 mps 763 mmHg 91%
    04:00 +9°C° 0 mm 2 mps 763 mmHg 92%
    05:00 +8°C° 0 mm 2 mps 763 mmHg 93%
    06:00 +8°C° 0 mm 2 mps 763 mmHg 94%
    07:00 +10°C° 0 mm 3 mps 764 mmHg 86%
    08:00 +12°C° 0 mm 3 mps 764 mmHg 79%
    09:00 +13°C° 0 mm 4 mps 764 mmHg 71%
    10:00 +14°C° 0 mm 4 mps 764 mmHg 66%
    11:00 +17°C° 0 mm 4 mps 764 mmHg 62%
    12:00 +18°C° 0 mm 4 mps 764 mmHg 57%
    13:00 +18°C° 0 mm 4 mps 764 mmHg 55%
    14:00 +18°C° 0 mm 4 mps 764 mmHg 53%
    15:00 +18°C° 0 mm 4 mps 765 mmHg 52%
    16:00 +17°C° 0 mm 3 mps 765 mmHg 57%
    17:00 +16°C° 0 mm 3 mps 765 mmHg 62%
    18:00 +13°C° 0 mm 3 mps 765 mmHg 68%
    19:00 +12°C° 0 mm 3 mps 765 mmHg 70%
    20:00 +11°C° 0 mm 3 mps 766 mmHg 73%
    21:00 +10°C° 0 mm 4 mps 766 mmHg 76%
    22:00 +9°C° 0 mm 3 mps 766 mmHg 77%
    23:00 +9°C° 0 mm 3 mps 766 mmHg 78%

    Tomorrow, 18 September, Wednesday

    Time Temperature Precipitation Wind Pressure Humidity
    00:00 +8°C° 0 mm 2 mps 767 mmHg 79%
    01:00 +8°C° 0 mm 2 mps 767 mmHg 80%
    02:00 +7°C° 0 mm 2 mps 767 mmHg 81%
    03:00 +7°C° 0 mm 2 mps 767 mmHg 82%
    04:00 +7°C° 0 mm 2 mps 767 mmHg 84%
    05:00 +8°C° 0 mm 1 mps 767 mmHg 85%
    06:00 +7°C° 0 mm 1 mps 768 mmHg 87%
    07:00 +8°C° 0 mm 2 mps 768 mmHg 79%
    08:00 +10°C° 0 mm 2 mps 768 mmHg 71%
    09:00 +13°C° 0 mm 2 mps 768 mmHg 63%
    10:00 +14°C° 0 mm 2 mps 768 mmHg 58%
    11:00 +15°C° 0 mm 2 mps 768 mmHg 54%
    12:00 +17°C° 0 mm 2 mps 768 mmHg 50%
    13:00 +17°C° 0 mm 2 mps 768 mmHg 49%
    14:00 +18°C° 0 mm 2 mps 768 mmHg 48%
    15:00 +18°C° 0 mm 2 mps 767 mmHg 48%
    16:00 +17°C° 0 mm 2 mps 767 mmHg 53%
    17:00 +16°C° 0 mm 2 mps 767 mmHg 59%
    18:00 +14°C° 0 mm 2 mps 767 mmHg 64%
    19:00 +14°C° 0 mm 1 mps 767 mmHg 66%
    20:00 +13°C° 0 mm 1 mps 768 mmHg 68%
    21:00 +11°C° 0 mm 0 mps 768 mmHg 69%
    22:00 +11°C° 0 mm 0 mps 768 mmHg 71%
    23:00 +10°C° 0 mm 0 mps 768 mmHg 73%

    Day after tomorrow, 19 September, Thursday

    Time Temperature Precipitation Wind Pressure Humidity
    00:00 +10°C° 0 mm 0 mps 768 mmHg 74%
    01:00 +10°C° 0 mm 0 mps 768 mmHg 76%
    02:00 +9°C° 0 mm 0 mps 768 mmHg 78%
    03:00 +9°C° 0 mm 0 mps 768 mmHg 80%
    04:00 +9°C° 0 mm 0 mps 768 mmHg 81%
    05:00 +9°C° 0 mm 0 mps 768 mmHg 82%
    06:00 +9°C° 0 mm 0 mps 768 mmHg 83%
    07:00 +10°C° 0 mm 0 mps 768 mmHg 78%
    08:00 +12°C° 0 mm 0 mps 769 mmHg 72%
    09:00 +14°C° 0 mm 0 mps 769 mmHg 66%
    10:00 +16°C° 0 mm 0 mps 769 mmHg 62%
    11:00 +17°C° 0 mm 0 mps 769 mmHg 58%
    12:00 +19°C° 0 mm 0 mps 769 mmHg 54%
    13:00 +21°C° 0 mm 1 mps 769 mmHg 54%
    14:00 +21°C° 0 mm 1 mps 768 mmHg 53%
    15:00 +22°C° 0 mm 1 mps 768 mmHg 52%
    16:00 +20°C° 0 mm 1 mps 768 mmHg 58%
    17:00 +19°C° 0 mm 1 mps 768 mmHg 64%
    18:00 +16°C° 0 mm 1 mps 768 mmHg 70%
    19:00 +16°C° 0 mm 1 mps 768 mmHg 72%
    20:00 +15°C° 0 mm 1 mps 768 mmHg 75%
    21:00 +14°C° 0 mm 1 mps 768 mmHg 78%
    22:00 +13°C° 0 mm 1 mps 768 mmHg 79%
    23:00 +13°C° 0 mm 1 mps 768 mmHg 81%

    20 September, Friday

    Time Temperature Precipitation Wind Pressure Humidity
    00:00 +12°C° 0 mm 2 mps 767 mmHg 83%
    01:00 +12°C° 0 mm 1 mps 767 mmHg 85%
    02:00 +12°C° 0 mm 1 mps 767 mmHg 87%
    03:00 +11°C° 0 mm 1 mps 767 mmHg 89%
    04:00 +11°C° 0 mm 1 mps 767 mmHg 90%
    05:00 +11°C° 0 mm 1 mps 766 mmHg 91%
    06:00 +11°C° 0 mm 1 mps 766 mmHg 92%
    07:00 +13°C° 0 mm 2 mps 766 mmHg 84%
    08:00 +13°C° 0 mm 3 mps 766 mmHg 77%
    09:00 +15°C° 0 mm 4 mps 766 mmHg 69%
    10:00 +17°C° 0 mm 4 mps 766 mmHg 63%
    11:00 +19°C° 0 mm 5 mps 765 mmHg 56%
    12:00 +20°C° 0 mm 5 mps 765 mmHg 50%
    13:00 +20°C° 0 mm 5 mps 764 mmHg 47%
    14:00 +20°C° 0 mm 5 mps 763 mmHg 44%
    15:00 +21°C° 0 mm 5 mps 763 mmHg 42%
    16:00 +19°C° 0 mm 5 mps 762 mmHg 47%
    17:00 +16°C° 0 mm 5 mps 762 mmHg 51%
    18:00 +15°C° 0 mm 4 mps 761 mmHg 56%
    19:00 +14°C° 0 mm 4 mps 761 mmHg 58%
    20:00 +13°C° 0 mm 4 mps 761 mmHg 60%
    21:00 +13°C° 0 mm 4 mps 760 mmHg 62%
    22:00 +13°C° 0 mm 4 mps 760 mmHg 63%
    23:00 +12°C° 0 mm 4 mps 759 mmHg 64%

    21 September, Saturday

    Time Temperature Precipitation Wind Pressure Humidity
    00:00 +12°C° 0 mm 4 mps 759 mmHg 64%
    01:00 +12°C° 0 mm 4 mps 758 mmHg 66%
    02:00 +12°C° 0 mm 4 mps 758 mmHg 68%
    03:00 +12°C° 0 mm 4 mps 757 mmHg 70%
    04:00 +11°C° 0 mm 4 mps 757 mmHg 72%
    05:00 +11°C° 0 mm 4 mps 756 mmHg 74%
    06:00 +10°C° 0 mm 4 mps 756 mmHg 76%
    07:00 +12°C° 0 mm 4 mps 756 mmHg 72%
    08:00 +14°C° 0 mm 5 mps 755 mmHg 68%
    09:00 +15°C° 0 mm 5 mps 755 mmHg 64%
    10:00 +17°C° 0 mm 5 mps 755 mmHg 60%
    11:00 +20°C° 0 mm 6 mps 754 mmHg 56%
    12:00 +22°C° 0 mm 6 mps 754 mmHg 52%
    13:00 +22°C° 0 mm 6 mps 753 mmHg 54%
    14:00 +23°C° 0 mm 6 mps 753 mmHg 57%
    15:00 +23°C° 0 mm 6 mps 752 mmHg 59%
    16:00 +22°C° 0.1 mm 5 mps 752 mmHg 64%
    17:00 +21°C° 0.1 mm 4 mps 751 mmHg 69%
    18:00 +19°C° 0.1 mm 3 mps 751 mmHg 75%
    19:00 +19°C° 0.7 mm 3 mps 751 mmHg 80%
    20:00 +18°C° 0.7 mm 3 mps 751 mmHg 84%
    21:00 +18°C° 0.7 mm 4 mps 751 mmHg 89%
    22:00 +17°C° 0.1 mm 4 mps 751 mmHg 90%
    23:00 +17°C° 0.1 mm 4 mps 751 mmHg 92%

    22 September, Sunday

    Time Temperature Precipitation Wind Pressure Humidity
    00:00 +15°C° 0.1 mm 4 mps 751 mmHg 93%
    01:00 +15°C° 0 mm 4 mps 751 mmHg 93%
    02:00 +15°C° 0 mm 4 mps 751 mmHg 94%
    03:00 +15°C° 0 mm 4 mps 751 mmHg 95%
    04:00 +15°C° 0 mm 5 mps 751 mmHg 94%
    05:00 +15°C° 0 mm 5 mps 751 mmHg 94%
    06:00 +16°C° 0 mm 5 mps 751 mmHg 94%
    07:00 +16°C° 0.9 mm 5 mps 751 mmHg 92%
    08:00 +16°C° 0.9 mm 5 mps 751 mmHg 91%
    09:00 +17°C° 0.9 mm 5 mps 752 mmHg 89%
    10:00 +17°C° 0.2 mm 5 mps 752 mmHg 81%
    11:00 +19°C° 0.2 mm 6 mps 752 mmHg 73%
    12:00 +20°C° 0.2 mm 6 mps 753 mmHg 64%
    13:00 +20°C° 0.1 mm 6 mps 753 mmHg 63%
    14:00 +20°C° 0.1 mm 6 mps 753 mmHg 62%
    15:00 +20°C° 0.1 mm 6 mps 753 mmHg 60%
    16:00 +17°C° 0 mm 5 mps 754 mmHg 65%
    17:00 +17°C° 0 mm 4 mps 754 mmHg 69%
    18:00 +16°C° 0 mm 3 mps 755 mmHg 73%
    19:00 +14°C° 0 mm 4 mps 755 mmHg 76%
    20:00 +14°C° 0 mm 4 mps 756 mmHg 79%
    21:00 +13°C° 0 mm 4 mps 757 mmHg 83%
    22:00 +12°C° 0 mm 4 mps 757 mmHg 86%
    23:00 +12°C° 0 mm 3 mps 757 mmHg 89%
    Show more